Etusivu
METAR-TAF:

METAR-TAF

Lentoasemat :

Willmar Municipal Airport (John L. Rice Field)

Willmar, Minnesota, Yhdysvallat

Leveyspiiri: 45-07N, Pituuspiiri: 095-05W, korkeus merenpinnasta: 344 m

Tämänhetkinen sää

Tämä raportti tehtiin 19 minuuttia sitten, kello 09.15 UTC
Tuuli 8 kn luoteesta
Lämpötila -11°C
Kosteus 92%
Ilmanpaine 1021 hPa
Näkyvyys: 8.0 km
Pilvistä 700 ft:n korkeudessa
heikkoa lumisadetta

METAR: KBDH 280915Z AUTO 32008KT 5SM -SN OVC007 M11/M12 A3016 RMK AO2

Aika: 03:34 (09:34 UTC)


TAF: puuttuu

Säähavainnot ja -ennusteet yli 4000 lentoasemalta (METAR- ja TAF-raportit).

Käytössä olevat sääasemat on merkitty karttaan keltaisilla ja punaisilla pisteillä.

Aseta hiiri pisteen päälle nähdäksesi sääaseman nimen.

Klikkaa sitten nähdäksesi säähavainnot ja -ennusteet.

Kartan vaihtaminen: klikkaa mustalla rastilla varustettuja vihreitä pisteitä, niin voit zoomata sisään; viivalla varustettua vihreää pistettä, niin voit zoomata ulos tai vihreitä nuolia, niin pääset viereisille kartoille.


METAR-TAF: